Regional Weather Roundup
Issued by NWS

Home | Current Version | Previous Version | Text Only | Print | Product List | Glossary Off
Versions: 1 2 3 4 5 6 7 8 9 10 11 12 13 14 15 16 17 18 19 20 21 22 23 24 25 26 27 28 29 30 31 32 33 34 35 36 37 38 39 40 41 42 43 44 45 46 47 48 49 50

361
ASUS43 KFSD 280402
RWRSD

WEATHER ROUNDUP FOR SOUTH DAKOTA
NATIONAL WEATHER SERVICE SIOUX FALLS SD
1100 PM CDT TUE JUN 27 2017

NOTE: "FAIR" INDICATES FEW OR NO CLOUDS BELOW 12,000 FEET WITH NO
SIGNIFICANT WEATHER AND/OR OBSTRUCTIONS TO VISIBILITY.


SDZ001>005-009-010-012>017-280500-
NORTHWEST AND NORTH CENTRAL SOUTH DAKOTA

CITY           SKY/WX    TMP DP  RH WIND       PRES   REMARKS
BUFFALO          N/A     69  51  52 NW28G36   29.64R
FAITH            N/A     74  52  46 W22G38    29.63R
MOBRIDGE       CLOUDY    76  55  48 SW16G28   29.47R THUNDER
$$

SDZ012>016-024>037-041>051-057-063-072>074-280500-
SOUTHWEST AND SOUTH CENTRAL SOUTH DAKOTA

CITY           SKY/WX    TMP DP  RH WIND       PRES   REMARKS
RAPID CTY ARPT CLOUDY    67  52  58 NW15      29.70R
PIERRE         CLOUDY    73  56  54 W9G32     29.51F
CUSTER         CLOUDY    60  45  57 NW5       29.87R
PHILIP         CLOUDY    68  32  26 N8        29.59F
PINE RIDGE     CLOUDY    62  58  86 W6        29.74S
SPEARFISH      MOCLDY    61  54  77 NW7       29.80R
WINNER         FAIR      74  54  49 NW12G31   29.64F
$$

SDZ004>011-016>023-039-040-280500-
NORTHEAST SOUTH DAKOTA

CITY           SKY/WX    TMP DP  RH WIND       PRES   REMARKS
ABERDEEN       MOCLDY    76  62  62 S20G30    29.56R
WATERTOWN      CLOUDY    70  58  65 SE15      29.65F
BROOKINGS      CLOUDY    72  61  68 S13       29.70
SISSETON         N/A     73  50  44 SE17      29.62F
$$

SDZ017-020-022-023-036>040-048>070-280500-
SOUTHEAST SOUTH DAKOTA

CITY           SKY/WX    TMP DP  RH WIND       PRES   REMARKS
SIOUX FALLS    CLOUDY    74  64  71 S14       29.69F THUNDER
HURON          CLOUDY    76  66  71 S13       29.61F
CHAMBERLAIN    CLOUDY    73  58  60 SW7       29.63F
MITCHELL       CLOUDY    78  66  66 S14G23    29.62F
YANKTON        CLOUDY    74  66  76 SE14      29.64F THUNDER
$$

ABBREVIATIONS USED IN REMARKS
   TC - TEMPERATURE IN CELSIUS
  WCI - WIND CHILL INDEX
   HX - HEAT INDEX
  VSB - VISIBILITY





USA.gov is the U.S. government's official web portal to all federal, state and local government web resources and services.